Regional Weather Roundup
Issued by NWS

Home | Current Version | Previous Version | Text Only | Print | Product List | Glossary On
Versions: 1 2 3 4 5 6 7 8 9 10 11 12 13 14 15 16 17 18 19 20 21 22 23 24 25 26 27 28 29 30 31 32 33 34 35 36 37 38 39 40 41 42 43 44 45 46 47 48 49 50
000
ASUS43 KMKX 060500
RWRWI

WISCONSIN REGIONAL WEATHER ROUNDUP
NATIONAL WEATHER SERVICE MILWAUKEE/SULLIVAN WI
1200 AM CDT WED MAY 06 2015

NOTE: "FAIR" INDICATES FEW OR NO CLOUDS BELOW 12,000 FEET WITH NO
SIGNIFICANT WEATHER AND/OR OBSTRUCTIONS TO VISIBILITY.

WIZ001-002-006>008-014>016-023>028-060600-
NORTHWEST WISCONSIN

CITY           SKY/WX    TMP DP  RH WIND       PRES   REMARKS
SUPERIOR ARPT  MOCLDY    44  34  67 E3        30.18F
ASHLAND        PTCLDY    36  34  92 S5        30.20R WCI  32
HAYWARD        PTCLDY    57  30  35 SE6       30.18F
SIREN          MOCLDY    59  32  35 SE7       30.15F
CUMBERLAND     CLOUDY    55  34  44 SE8       30.17S
RICE LAKE      CLOUDY    59  37  44 SE12      30.18F
CHETEK         CLOUDY    58  42  55 E6        30.18F
LADYSMITH      CLOUDY    56  32  40 E6        30.22F
EAU CLAIRE     LGT RAIN  54  48  82 MISG      30.18S
MENOMONIE      CLOUDY    55  50  85 E12       30.18S
NEW RICHMOND   LGT RAIN  56  49  79 SE9       30.16S
OSCEOLA        CLOUDY    58  50  74 SE10G18   30.17S
$$

WIZ003>005-009-010-017-018-060600-
NORTH CENTRAL WISCONSIN

CITY           SKY/WX    TMP DP  RH WIND       PRES   REMARKS
MANITOWISH WTR PTCLDY    51  29  42 S5        30.23S
ARBOR VITAE    PTCLDY    55  29  37 SE5       30.24S
WOODRUFF       PTCLDY    55  29  37 SE5       30.24S
RHINELANDER    PTCLDY    48  28  46 SE5       30.25S
EAGLE RIVER    CLEAR     47  28  48 SE3       30.25S
LAND O LAKES   CLEAR     46  30  54 CALM      30.25S
PHILLIPS       MOCLDY    54  29  38 CALM      30.22S
TOMAHAWK       MOCLDY    48  29  46 CALM      30.24F
MEDFORD        CLOUDY    55  26  32 SE6       30.22S
MERRILL        MOCLDY    52  27  38 SE3       30.25S
$$

WIZ029-030-035-036-043>047-060600-
CENTRAL WISCONSIN

CITY           SKY/WX    TMP DP  RH WIND       PRES   REMARKS
WAUSAU         CLOUDY    56  24  29 E7        30.22S
MOSINEE        CLOUDY    54  30  40 CALM      30.24F
MARSHFIELD     CLOUDY    54  44  69 E9        30.22S
STEVENS POINT  LGT RAIN  55  43  64 E6        30.23F
WAUPACA        CLOUDY    57  47  70 E6        30.24F
WAUTOMA        NOT AVBL
WISC RAPIDS    LGT RAIN  53  45  74 SE7       30.23F
CAMP DOUGLAS   NOT AVBL
$$

WIZ011>013-019>022-031-037>040-048>050-060600-
NORTHEAST WISCONSIN

CITY           SKY/WX    TMP DP  RH WIND       PRES   REMARKS
ANTIGO         CLOUDY    49  33  53 SE6       30.26R
SHAWANO        CLOUDY    56  30  37 SE5       30.26S
OCONTO         CLOUDY    49  41  73 CALM      30.26S
STURGEON BAY   CLOUDY    54  28  37 E5        30.28S
GREEN BAY      CLOUDY    53  35  50 S3        30.26R
MANITOWOC      NOT AVBL
APPLETON       CLOUDY    55  34  44 SE7       30.25S
CLINTONVILLE   CLOUDY    54  30  40 E5        30.25S
OSHKOSH        CLOUDY    55  40  56 E7        30.24S
$$

WIZ032>034-041-042-053>061-060600-
SOUTHWEST WISCONSIN

CITY           SKY/WX    TMP DP  RH WIND       PRES   REMARKS
LA CROSSE      CLOUDY    56  52  86 E6        30.19R
SPARTA         CLOUDY    52  50  93 E3        30.20S
VIROQUA        CLOUDY    53  53 100 SE10      30.19R
BOSCOBEL       CLOUDY    56  53  90 E3        30.20S FOG
PRAIRIE DU CHI CLOUDY    56  53  89 SE8       30.17S
PLATTEVILLE    CLOUDY    52  51  96 E9        30.19R
$$

WIZ056-057-062-063-064-067-068-060600-
SOUTH CENTRAL WISCONSIN

CITY           SKY/WX    TMP DP  RH WIND       PRES   REMARKS
REEDSBURG      CLOUDY    52  50  94 E5        30.21S
BARABOO/DELLS  NOT AVBL
LONE ROCK      NOT AVBL
MINERAL POINT  CLOUDY    52  50  93 E10       30.20S FOG
MADISON        CLOUDY    52  49  89 MISG      30.22S
MIDDLETON      CLOUDY    53  51  91 E10       30.22S
WATERTOWN      CLOUDY    50  50 100 E6        30.23R
MONROE         CLOUDY    50  50 100 E7        30.21R FOG
JANESVILLE     CLOUDY    52  50  93 E7        30.21F FOG
$$

WIZ051-052-058>065-066-070>072-060600-
SOUTHEAST WISCONSIN

CITY           SKY/WX    TMP DP  RH WIND       PRES   REMARKS
MILWAUKEE      LGT RAIN  45  39  79 NE5       30.26R
WAUKESHA       CLOUDY    46  43  87 NE6       30.26S
MILWAUKEE/TIMM LGT RAIN  45  41  87 NE3       30.26S
RACINE         CLOUDY    46  40  79 NE7       30.25F
BURLINGTON     CLOUDY    46  45  95 E7        30.24S
KENOSHA        CLOUDY    48  45  89 NE6       30.24F
FOND DU LAC    LGT RAIN  52  44  74 E3        30.24F
SHEBOYGAN      CLOUDY    48  37  65 CALM      30.26S
WEST BEND      LGT RAIN  46  39  76 E7        30.25S
JUNEAU         RAIN      50  48  94 E5        30.24S
$$

LSZ147-162-060600-
LAKE SUPERIOR

STATION/POSITION TIME  TEMP    WIND        PRES    WAVE
                       AIR SEA DIR/SP/G            HT/PER
                 (UTC) (F)     (DEG/KT/KT) (MB)    (FT/S)
W MID LAKE BUOY  0350   41 35   90/ 10/ 12 1022.7R   1/ 3
DEVILS ISLAND    0400   46     220/  8/  9 1022.5R
PORT WING        0400   41      CALM  /  2 1022.4
SAXON HARBOR     0400   41        CALM     1021.7S
$$

LMZ867-665-643>646-060600-
LAKE MICHIGAN

STATION/POSITION TIME  TEMP    WIND        PRES    WAVE
                       AIR SEA DIR/SP/G            HT/PER
                 (UTC) (F)     (DEG/KT/KT) (MB)    (FT/S)
CHAMBERS ISLAND  0400   43      CALM  /  1 1024.7F
NORTHPORT PIER   0400   49     310/  2/  3 1024.7S
SISTER BAY       0417   46        CALM       N/A
KEWAUNEE LAKESHO 0412   47      CALM  /  1 1023.7F
SHEBOYGAN LAKESH 0400   47      10/  4/  4 1025.2F
PORT WASHINGTON  0440   48     310/  3/  4 1025.4S
ATWATER BUOY     0400   44      10/  6/  8 1025.8R
MILWAUKEE LAKESH 0400   45      30/  9/ 10   N/A
KENOSHA   LAKESH 0400   45      30/  9/ 12 1024.0F
$$

TC  - TEMPERATURE IN CELSIUS
VSB - VISIBILITY IN STATUTE MILES
WCI - WIND CHILL INDEX
HX  - HEAT INDEX



USA.gov is the U.S. government's official web portal to all federal, state and local government web resources and services.